Flag for Germany Weather past 2 weeks in Neumünster, Schleswig-Holstein, Germany

Now
63 °F

Overcast.


Feels Like: 63 °F
Forecast: 49 / 65 °F
Wind: 7 mph from Southwest

Location: Itzehoe

Current Time: Sep 2, 2015 at 1:28:36 PM

Latest Report: Sep 2, 2015 at 1:00 PM


Visibility: 11 mi

Pressure: 29.91 "Hg

Humidity: 67%

Dew point: 52 °F

Location of NeumünsterLocation

Historic Weather in Neumünster — Graph

°F

Neumünster temperature yesterday

Maximum temperature yesterday: 66 °F (at 7:00 AM)
Minimum temperature yesterday: 56 °F (at 11:00 PM)
Average temperature yesterday: 62 °F

Past Weeks' High & Low Weather Summary

 TemperatureHumidityPressure
High79 °F (Aug 31, 6:00 PM)100% (Aug 19, 1:00 AM)30.30 "Hg (Aug 19, 1:00 AM)
Low47 °F (Aug 29, 6:00 AM)33% (Aug 22, 3:00 PM)29.59 "Hg (Aug 24, 10:00 PM)
Average63 °F81%29.98 "Hg
* Reported Aug 18 12:00 Noon — Sep 2 12:00 Noon, Neumünster, Weather by CustomWeather, © 2015

Note: Actual official high and low records may vary slightly from our data, if they occured in-between our weather recording intervals... More about our weather records

Advertising

Neumünster weather history for previous 24 hours

 ConditionsComfort  
Time TempWeatherWind HumidityBarometerVisibility
12:00 PM
Wed, Sep 2
62 °FPartly sunny.7 mph71%29.91 "Hg11 mi
10:00 AM59 °FScattered clouds.6 mph79%29.90 "Hg9 mi
9:00 AM56 °FSunny.6 mph85%29.89 "Hg9 mi
7:00 AM54 °FPassing clouds.5 mph94%29.88 "Hg10 mi
4:00 AM55 °FPassing clouds.5 mph93%29.88 "Hg14 mi
3:00 AM55 °FPassing clouds.5 mph92%29.89 "Hg14 mi
1:00 AM55 °FPassing clouds.2 mph89%29.89 "Hg14 mi
11:00 PM
Tue, Sep 1
56 °FPassing clouds.2 mph86%29.88 "Hg13 mi
10:00 PM58 °FPassing clouds.2 mph84%29.86 "Hg12 mi
9:00 PM59 °FPassing clouds.2 mph82%29.85 "Hg12 mi
7:00 PM62 °FOvercast.3 mph79%29.83 "Hg16 mi
6:00 PM62 °FOvercast.3 mph83%29.81 "Hg19 mi
5:00 PM62 °FOvercast.3 mph86%29.80 "Hg12 mi
4:00 PM62 °FOvercast.3 mph90%29.79 "Hg14 mi
3:00 PM62 °FScattered clouds.3 mph90%29.78 "Hg9 mi
1:00 PM63 °FOvercast.5 mph87%29.76 "Hg16 mi
Weather by CustomWeather, © 2015

See weather overviewHow to use our weather pages